^^
Saratoga-Weather Station Historical Data
Daily Summary for April 10, 2020 Units:  Metric    English   Both
Daily Weekly Monthly Yearly Custom
  High: Low: Average:
Temperature: 22.6 °C 12.7 °C 17.1 °C
Dew Point: 17.5 °C 12 °C 14.5 °C
Humidity: 97% 64% 86%
Wind Speed: 14.3km/h 0km/h 2km/h
Wind Gust: 25.7km/h - -
Wind- - WSW
Pressure: 1007.8 hPa 1001.7 hPa -
Precipitation: 3.3 mm    
Historical Graphs
 
 
Tabular Data for April 10, 2020
Time Temperature Dew Point Pressure Wind Wind Speed Wind Gust Humidity Rainfall Rate (Hourly) solar
00:03 13.2 °C 12.4 °C 1007.8 hPa Calm     95% 0.0 mm 0 W/m2
00:08 13.2 °C 12.4 °C 1007.8 hPa Calm     95% 0.0 mm 0 W/m2
00:13 13.2 °C 12.4 °C 1007.8 hPa Calm     95% 0.0 mm 0 W/m2
00:18 13.1 °C 12.3 °C 1007.8 hPa Calm     95% 0.0 mm 0 W/m2
00:23 13.1 °C 12.3 °C 1007.5 hPa Calm     95% 0.0 mm 0 W/m2
00:28 13.1 °C 12.3 °C 1007.5 hPa Calm     95% 0.0 mm 0 W/m2
00:33 13.1 °C 12.3 °C 1007.5 hPa Calm     95% 0.0 mm 0 W/m2
00:38 13.1 °C 12.3 °C 1007.5 hPa Calm     95% 0.0 mm 0 W/m2
00:43 13.1 °C 12.3 °C 1007.1 hPa Calm     95% 0.0 mm 0 W/m2
00:48 13 °C 12.2 °C 1007.1 hPa Calm     95% 0.0 mm 0 W/m2
00:53 13 °C 12.2 °C 1007.1 hPa Calm     95% 0.0 mm 0 W/m2
00:58 12.9 °C 12.1 °C 1007.1 hPa Calm     95% 0.0 mm 0 W/m2
01:03 12.9 °C 12.1 °C 1006.8 hPa Calm     95% 0.0 mm 0 W/m2
01:08 12.9 °C 12.1 °C 1007.1 hPa Calm     95% 0.0 mm 0 W/m2
01:13 12.9 °C 12.1 °C 1006.8 hPa Calm     95% 0.0 mm 0 W/m2
01:18 12.8 °C 12 °C 1006.8 hPa Calm     95% 0.0 mm 0 W/m2
01:23 12.8 °C 12 °C 1006.8 hPa Calm     95% 0.0 mm 0 W/m2
01:29 12.8 °C 12 °C 1006.8 hPa Calm     95% 0.0 mm 0 W/m2
01:34 12.8 °C 12.2 °C 1006.8 hPa Calm     96% 0.0 mm 0 W/m2
01:39 12.8 °C 12.2 °C 1006.8 hPa Calm     96% 0.0 mm 0 W/m2
01:44 12.8 °C 12.2 °C 1006.8 hPa Calm     96% 0.0 mm 0 W/m2
01:49 12.9 °C 12.3 °C 1006.8 hPa Calm     96% 0.2 mm 0 W/m2
01:54 12.9 °C 12.3 °C 1006.4 hPa Calm     96% 0.2 mm 0 W/m2
01:59 12.9 °C 12.3 °C 1006.4 hPa Calm     96% 0.2 mm 0 W/m2
02:04 12.9 °C 12.3 °C 1006.4 hPa Calm     96% 0.2 mm 0 W/m2
02:09 13 °C 12.4 °C 1006.4 hPa Calm     96% 0.2 mm 0 W/m2
02:14 12.9 °C 12.3 °C 1006.4 hPa Calm     96% 0.2 mm 0 W/m2
02:19 12.9 °C 12.3 °C 1006.4 hPa Calm     96% 0.2 mm 0 W/m2
02:24 12.9 °C 12.3 °C 1006.4 hPa Calm     96% 0.2 mm 0 W/m2
02:29 12.9 °C 12.3 °C 1006.1 hPa Calm     96% 0.2 mm 0 W/m2
02:34 12.9 °C 12.3 °C 1006.1 hPa SSE 1.4 km/h 3.2 km/h 96% 0.2 mm 0 W/m2
02:39 12.9 °C 12.3 °C 1006.4 hPa SSE 3.2 km/h 3.2 km/h 96% 0.2 mm 0 W/m2
02:44 12.8 °C 12.2 °C 1006.1 hPa SW 1.4 km/h 3.2 km/h 96% 0.2 mm 0 W/m2
02:49 12.9 °C 12.3 °C 1006.1 hPa Calm     96% 0.0 mm 0 W/m2
02:54 12.9 °C 12.3 °C 1006.1 hPa Calm     96% 0.0 mm 0 W/m2
02:59 12.9 °C 12.3 °C 1006.1 hPa Calm     96% 0.2 mm 0 W/m2
03:04 12.9 °C 12.3 °C 1006.1 hPa Calm   1.6 km/h 96% 0.2 mm 0 W/m2
03:09 12.9 °C 12.3 °C 1006.1 hPa Calm     96% 0.2 mm 0 W/m2
03:14 12.9 °C 12.3 °C 1006.1 hPa Calm   1.6 km/h 96% 0.2 mm 0 W/m2
03:19 12.9 °C 12.3 °C 1006.1 hPa Calm     96% 0.2 mm 0 W/m2
03:24 12.9 °C 12.3 °C 1006.1 hPa Calm     96% 0.2 mm 0 W/m2
03:29 12.9 °C 12.3 °C 1005.8 hPa Calm     96% 0.2 mm 0 W/m2
03:34 12.9 °C 12.3 °C 1005.8 hPa Calm     96% 0.2 mm 0 W/m2
03:39 12.9 °C 12.3 °C 1005.8 hPa Calm     96% 0.2 mm 0 W/m2
03:44 12.9 °C 12.3 °C 1005.8 hPa Calm     96% 0.2 mm 0 W/m2
03:49 12.8 °C 12.2 °C 1005.8 hPa Calm     96% 0.2 mm 0 W/m2
03:54 12.8 °C 12.2 °C 1005.8 hPa Calm     96% 0.2 mm 0 W/m2
03:59 12.8 °C 12.2 °C 1005.8 hPa Calm     96% 0.0 mm 0 W/m2
04:04 12.8 °C 12.2 °C 1005.8 hPa Calm     96% 0.0 mm 0 W/m2
04:09 12.8 °C 12.2 °C 1005.8 hPa Calm     96% 0.0 mm 0 W/m2
04:14 12.8 °C 12.2 °C 1005.8 hPa Calm     96% 0.0 mm 0 W/m2
04:19 12.8 °C 12.2 °C 1005.8 hPa Calm     96% 0.0 mm 0 W/m2
04:25 12.8 °C 12.2 °C 1005.8 hPa Calm     96% 0.0 mm 0 W/m2
04:30 12.8 °C 12.2 °C 1005.8 hPa Calm     96% 0.0 mm 0 W/m2
04:35 12.9 °C 12.4 °C 1005.8 hPa Calm     97% 0.0 mm 0 W/m2
04:40 12.9 °C 12.3 °C 1005.8 hPa Calm     96% 0.0 mm 0 W/m2
04:45 12.9 °C 12.3 °C 1005.8 hPa Calm     96% 0.0 mm 0 W/m2
04:50 12.9 °C 12.3 °C 1005.4 hPa Calm     96% 0.0 mm 0 W/m2
04:55 12.8 °C 12.3 °C 1005.4 hPa Calm     97% 0.0 mm 0 W/m2
05:00 12.9 °C 12.3 °C 1005.8 hPa Calm     96% 0.0 mm 0 W/m2
05:05 12.8 °C 12.3 °C 1005.8 hPa Calm     97% 0.0 mm 0 W/m2
05:10 12.8 °C 12.3 °C 1005.4 hPa Calm     97% 0.0 mm 0 W/m2
05:15 12.8 °C 12.3 °C 1005.4 hPa Calm     97% 0.0 mm 0 W/m2
05:20 12.8 °C 12.3 °C 1005.8 hPa Calm     97% 0.2 mm 0 W/m2
05:25 12.8 °C 12.3 °C 1005.4 hPa Calm     97% 0.2 mm 0 W/m2
05:30 12.8 °C 12.3 °C 1005.4 hPa Calm     97% 0.5 mm 0 W/m2
05:35 12.7 °C 12.2 °C 1005.8 hPa Calm     97% 0.5 mm 0 W/m2
05:40 12.7 °C 12.2 °C 1005.8 hPa Calm     97% 0.8 mm 0 W/m2
05:45 12.7 °C 12.2 °C 1005.4 hPa Calm     97% 1.3 mm 0 W/m2
05:50 12.7 °C 12.2 °C 1005.1 hPa Calm     97% 1.5 mm 0 W/m2
05:55 12.7 °C 12.2 °C 1005.1 hPa Calm     97% 1.5 mm 0 W/m2
06:00 12.7 °C 12.2 °C 1005.1 hPa SW 1.4 km/h 3.2 km/h 97% 1.8 mm 0 W/m2
06:05 12.7 °C 12.2 °C 1005.1 hPa Calm     97% 2.3 mm 0 W/m2
06:10 12.7 °C 12.2 °C 1005.1 hPa Calm   1.6 km/h 97% 2.3 mm 0 W/m2
06:15 12.7 °C 12.2 °C 1005.1 hPa Calm     97% 2.3 mm 0 W/m2
06:20 12.7 °C 12.2 °C 1005.1 hPa SW 3.2 km/h 3.2 km/h 97% 2.3 mm 0 W/m2
06:25 12.8 °C 12.3 °C 1005.1 hPa Calm     97% 2.3 mm 0 W/m2
06:30 12.8 °C 12.3 °C 1005.1 hPa Calm   3.2 km/h 97% 2.3 mm 0 W/m2
06:35 12.7 °C 12.2 °C 1005.1 hPa Calm     97% 2.0 mm 0 W/m2
06:40 12.7 °C 12.2 °C 1005.1 hPa Calm     97% 1.8 mm 0 W/m2
06:45 12.7 °C 12.2 °C 1005.1 hPa SW 1.4 km/h 3.2 km/h 97% 1.5 mm 0 W/m2
06:50 12.7 °C 12.2 °C 1005.1 hPa Calm     97% 1.3 mm 0 W/m2
06:55 12.7 °C 12.2 °C 1005.1 hPa Calm     97% 1.0 mm 0 W/m2
07:00 12.7 °C 12.2 °C 1005.1 hPa Calm     97% 0.8 mm 5 W/m2
07:05 12.7 °C 12.2 °C 1005.1 hPa Calm     97% 0.5 mm 11 W/m2
07:10 12.7 °C 12.2 °C 1005.1 hPa Calm     97% 0.5 mm 18 W/m2
07:15 12.7 °C 12.2 °C 1005.1 hPa Calm     97% 0.2 mm 26 W/m2
07:20 12.7 °C 12.2 °C 1005.1 hPa Calm     97% 0.0 mm 32 W/m2
07:25 12.7 °C 12.2 °C 1005.1 hPa Calm     97% 0.0 mm 51 W/m2
07:30 12.8 °C 12.3 °C 1005.1 hPa Calm     97% 0.0 mm 60 W/m2
07:35 12.8 °C 12.3 °C 1005.1 hPa Calm     97% 0.0 mm 69 W/m2
07:40 12.8 °C 12.3 °C 1005.4 hPa Calm     97% 0.0 mm 84 W/m2
07:45 13 °C 12.5 °C 1005.4 hPa SW 1.4 km/h 3.2 km/h 97% 0.0 mm 158 W/m2
07:50 13.1 °C 12.6 °C 1005.4 hPa Calm   1.6 km/h 97% 0.0 mm 120 W/m2
07:55 13.2 °C 12.7 °C 1005.4 hPa Calm   1.6 km/h 97% 0.2 mm 84 W/m2
08:00 13.2 °C 12.7 °C 1005.4 hPa East 1.4 km/h 3.2 km/h 97% 0.2 mm 93 W/m2
08:05 13.2 °C 12.7 °C 1005.4 hPa Calm   3.2 km/h 97% 0.2 mm 111 W/m2
08:10 13.3 °C 12.8 °C 1005.1 hPa Calm   3.2 km/h 97% 0.2 mm 128 W/m2
08:15 13.3 °C 12.8 °C 1005.1 hPa NE 1.4 km/h 4.8 km/h 97% 0.2 mm 114 W/m2
08:20 13.4 °C 12.9 °C 1005.1 hPa Calm     97% 0.2 mm 137 W/m2
08:26 13.4 °C 12.9 °C 1005.1 hPa Calm   4.8 km/h 97% 0.2 mm 202 W/m2
08:31 13.6 °C 13.1 °C 1005.1 hPa Calm     97% 0.2 mm 411 W/m2
08:36 13.8 °C 13.3 °C 1005.1 hPa NNE 3.2 km/h 4.8 km/h 97% 0.2 mm 174 W/m2
08:41 13.7 °C 13.2 °C 1005.1 hPa East 1.4 km/h 3.2 km/h 97% 0.2 mm 188 W/m2
08:46 13.8 °C 13.3 °C 1005.4 hPa Calm   1.6 km/h 97% 0.2 mm 192 W/m2
08:51 13.9 °C 13.4 °C 1005.1 hPa ESE 1.4 km/h 6.4 km/h 97% 0.2 mm 176 W/m2
08:56 14 °C 13.5 °C 1005.1 hPa ESE 1.4 km/h 3.2 km/h 97% 0.0 mm 153 W/m2
09:01 14.2 °C 13.7 °C 1005.1 hPa Calm   6.4 km/h 97% 0.0 mm 144 W/m2
09:06 14.1 °C 13.5 °C 1005.1 hPa Calm     96% 0.0 mm 160 W/m2
09:11 14.2 °C 13.6 °C 1005.1 hPa NE 1.4 km/h 4.8 km/h 96% 0.0 mm 158 W/m2
09:16 14.2 °C 13.6 °C 1005.1 hPa Calm     96% 0.0 mm 139 W/m2
09:21 14.2 °C 13.4 °C 1005.1 hPa Calm   4.8 km/h 95% 0.0 mm 118 W/m2
09:26 14.3 °C 13.5 °C 1005.1 hPa East 3.2 km/h 3.2 km/h 95% 0.0 mm 105 W/m2
09:31 14.3 °C 13.5 °C 1005.1 hPa Calm     95% 0.0 mm 69 W/m2
09:36 14.4 °C 13.6 °C 1005.1 hPa Calm     95% 0.0 mm 83 W/m2
09:42 14.6 °C 13.8 °C 1005.1 hPa Calm   3.2 km/h 95% 0.0 mm 512 W/m2
09:47 14.9 °C 14.1 °C 1005.1 hPa ESE 3.2 km/h 4.8 km/h 95% 0.0 mm 652 W/m2
09:52 15.4 °C 14.6 °C 1005.1 hPa ESE 3.2 km/h 4.8 km/h 95% 0.0 mm 482 W/m2
09:57 15.8 °C 14.7 °C 1005.1 hPa ENE 1.4 km/h 4.8 km/h 93% 0.0 mm 330 W/m2
10:02 15.9 °C 14.6 °C 1005.1 hPa East 3.2 km/h 3.2 km/h 92% 0.0 mm 236 W/m2
10:07 16 °C 14.7 °C 1005.1 hPa SE 1.4 km/h 4.8 km/h 92% 0.0 mm 209 W/m2
10:12 16.1 °C 14.8 °C 1005.1 hPa Calm   1.6 km/h 92% 0.0 mm 199 W/m2
10:17 16.1 °C 14.6 °C 1004.7 hPa Calm   1.6 km/h 91% 0.0 mm 199 W/m2
10:22 16.1 °C 14.8 °C 1004.7 hPa ESE 1.4 km/h 3.2 km/h 92% 0.0 mm 209 W/m2
10:27 16.2 °C 14.9 °C 1004.7 hPa East 1.4 km/h 1.6 km/h 92% 0.0 mm 223 W/m2
10:32 16.3 °C 15 °C 1005.1 hPa Calm   1.6 km/h 92% 0.0 mm 216 W/m2
10:37 16.3 °C 14.8 °C 1005.1 hPa Calm   3.2 km/h 91% 0.0 mm 223 W/m2
10:42 16.4 °C 14.9 °C 1005.1 hPa East 3.2 km/h 6.4 km/h 91% 0.0 mm 309 W/m2
10:47 16.6 °C 15.1 °C 1004.7 hPa Calm   4.8 km/h 91% 0.0 mm 780 W/m2
10:52 17 °C 15.2 °C 1004.7 hPa East 7.9 km/h 8 km/h 89% 0.0 mm 589 W/m2
10:57 17.3 °C 15.5 °C 1004.7 hPa Calm   3.2 km/h 89% 0.0 mm 657 W/m2
11:02 17.5 °C 15.7 °C 1004.7 hPa Calm   1.6 km/h 89% 0.0 mm 427 W/m2
11:08 17.7 °C 15.9 °C 1004.7 hPa Calm   1.6 km/h 89% 0.0 mm 353 W/m2
11:13 17.9 °C 15.9 °C 1004.7 hPa Calm     88% 0.0 mm 394 W/m2
11:18 18.1 °C 15.9 °C 1004.7 hPa East 3.2 km/h 4.8 km/h 87% 0.0 mm 531 W/m2
11:23 18.2 °C 15.8 °C 1004.7 hPa ESE 1.4 km/h 6.4 km/h 86% 0.0 mm 366 W/m2
11:28 18.4 °C 16.4 °C 1004.4 hPa Calm   4.8 km/h 88% 0.0 mm 628 W/m2
11:33 18.6 °C 16.2 °C 1004.4 hPa Calm   1.6 km/h 86% 0.0 mm 487 W/m2
11:38 18.8 °C 16.2 °C 1004.4 hPa Calm   4.8 km/h 85% 0.0 mm 362 W/m2
11:43 19.1 °C 16.5 °C 1004.4 hPa Calm   1.6 km/h 85% 0.0 mm 510 W/m2
11:48 19.3 °C 16.7 °C 1004.7 hPa NW 3.2 km/h 3.2 km/h 85% 0.0 mm 482 W/m2
11:53 19.4 °C 16.6 °C 1004.4 hPa WNW 3.2 km/h 4.8 km/h 84% 0.0 mm 649 W/m2
11:58 19.6 °C 16.6 °C 1004.7 hPa Calm   3.2 km/h 83% 0.0 mm 459 W/m2
12:03 20 °C 17 °C 1004.4 hPa SE 1.4 km/h 6.4 km/h 83% 0.0 mm 659 W/m2
12:08 20.5 °C 17.5 °C 1004.4 hPa NE 4.7 km/h 6.4 km/h 83% 0.0 mm 1146 W/m2
12:13 20.7 °C 17.1 °C 1004.4 hPa SE 1.4 km/h 6.4 km/h 80% 0.0 mm 436 W/m2
12:18 20.7 °C 17.1 °C 1004.4 hPa ENE 1.4 km/h 4.8 km/h 80% 0.0 mm 387 W/m2
12:23 20.7 °C 16.9 °C 1004.4 hPa WNW 1.4 km/h 9.7 km/h 79% 0.0 mm 367 W/m2
12:28 20.7 °C 16.7 °C 1004.4 hPa SE 3.2 km/h 8 km/h 78% 0.0 mm 476 W/m2
12:33 20.7 °C 16.5 °C 1004.4 hPa NW 3.2 km/h 6.4 km/h 77% 0.0 mm 424 W/m2
12:38 20.7 °C 16.7 °C 1004.4 hPa NNW 3.2 km/h 4.8 km/h 78% 0.0 mm 469 W/m2
12:43 20.7 °C 16.7 °C 1004.4 hPa NE 1.4 km/h 4.8 km/h 78% 0.0 mm 466 W/m2
12:48 20.8 °C 17 °C 1004.4 hPa Calm   1.6 km/h 79% 0.0 mm 698 W/m2
12:53 21 °C 17.2 °C 1004.4 hPa Calm   4.8 km/h 79% 0.0 mm 320 W/m2
12:58 21.1 °C 17.1 °C 1004.4 hPa WNW 4.7 km/h 6.4 km/h 78% 0.0 mm 478 W/m2
13:03 20.8 °C 16.4 °C 1004.4 hPa NNW 1.4 km/h 3.2 km/h 76% 0.0 mm 325 W/m2
13:08 20.9 °C 16.7 °C 1004.1 hPa North 3.2 km/h 3.2 km/h 77% 0.0 mm 316 W/m2
13:13 21.1 °C 16.7 °C 1004.1 hPa NW 1.4 km/h 4.8 km/h 76% 0.0 mm 882 W/m2
13:18 21.4 °C 17.2 °C 1004.1 hPa SE 1.4 km/h 4.8 km/h 77% 0.0 mm 919 W/m2
13:23 21.6 °C 17.2 °C 1004.1 hPa NNE 6.4 km/h 9.7 km/h 76% 0.0 mm 322 W/m2
13:28 21.7 °C 16.9 °C 1004.1 hPa East 13 km/h 12.9 km/h 74% 0.0 mm 965 W/m2
13:33 21.7 °C 16.4 °C 1004.1 hPa West 3.2 km/h 4.8 km/h 72% 0.0 mm 330 W/m2
13:38 21.8 °C 16.5 °C 1004.1 hPa NW 3.2 km/h 4.8 km/h 72% 0.0 mm 330 W/m2
13:43 21.9 °C 16.8 °C 1004.1 hPa WSW 4.7 km/h 14.5 km/h 73% 0.0 mm 990 W/m2
13:48 21.9 °C 16.6 °C 1004.1 hPa East 7.9 km/h 12.9 km/h 72% 0.0 mm 619 W/m2
13:53 21.8 °C 16.5 °C 1004.1 hPa NNW 3.2 km/h 6.4 km/h 72% 0.0 mm 378 W/m2
13:58 21.9 °C 16.6 °C 1003.7 hPa NW 4.7 km/h 6.4 km/h 72% 0.0 mm 958 W/m2
14:03 22.1 °C 16.1 °C 1003.7 hPa West 3.2 km/h 12.9 km/h 69% 0.0 mm 858 W/m2
14:08 22.4 °C 16.4 °C 1003.7 hPa WNW 3.2 km/h 20.9 km/h 69% 0.0 mm 868 W/m2
14:13 22.6 °C 16.8 °C 1003.4 hPa West 13 km/h 14.5 km/h 70% 0.0 mm 881 W/m2
14:19 22.6 °C 16.2 °C 1003.7 hPa WNW 3.2 km/h 20.9 km/h 67% 0.0 mm 309 W/m2
14:24 22.6 °C 16.4 °C 1003.7 hPa WNW 6.4 km/h 14.5 km/h 68% 0.0 mm 761 W/m2
14:29 22.5 °C 16.3 °C 1003.4 hPa West 13 km/h 12.9 km/h 68% 0.0 mm 761 W/m2
14:34 22.6 °C 16.2 °C 1003.4 hPa South 3.2 km/h 14.5 km/h 67% 0.0 mm 898 W/m2
14:39 22.6 °C 15.9 °C 1003.4 hPa West 3.2 km/h 6.4 km/h 66% 0.0 mm 404 W/m2
14:44 22.6 °C 16.2 °C 1003.4 hPa WNW 6.4 km/h 12.9 km/h 67% 0.0 mm 900 W/m2
14:49 22.6 °C 16.4 °C 1003.4 hPa West 11.1 km/h 14.5 km/h 68% 0.0 mm 211 W/m2
14:54 22.3 °C 16.3 °C 1003.4 hPa West 6.4 km/h 17.7 km/h 69% 0.0 mm 269 W/m2
14:59 21.9 °C 16 °C 1003.4 hPa WNW 11.1 km/h 25.7 km/h 69% 0.0 mm 394 W/m2
15:04 21.2 °C 15.7 °C 1003.7 hPa WNW 13 km/h 16.1 km/h 71% 0.0 mm 211 W/m2
15:09 20.6 °C 15.4 °C 1003.4 hPa West 6.4 km/h 25.7 km/h 72% 0.0 mm 199 W/m2
15:14 20.3 °C 15.5 °C 1003.7 hPa West 3.2 km/h 6.4 km/h 74% 0.0 mm 193 W/m2
15:19 20.1 °C 15.5 °C 1003.7 hPa WNW 6.4 km/h 12.9 km/h 75% 0.0 mm 204 W/m2
15:24 19.6 °C 15.3 °C 1003.7 hPa WSW 11.1 km/h 12.9 km/h 76% 0.0 mm 186 W/m2
15:29 19.3 °C 15.6 °C 1003.7 hPa WNW 6.4 km/h 11.3 km/h 79% 0.0 mm 183 W/m2
15:34 19.2 °C 15.7 °C 1003.4 hPa WNW 4.7 km/h 12.9 km/h 80% 0.2 mm 320 W/m2
15:39 19.1 °C 16 °C 1003.4 hPa NW 3.2 km/h 11.3 km/h 82% 0.2 mm 301 W/m2
15:44 19.1 °C 15.8 °C 1003.4 hPa WSW 4.7 km/h 11.3 km/h 81% 0.2 mm 376 W/m2
15:49 19.2 °C 15.7 °C 1003.4 hPa WNW 6.4 km/h 11.3 km/h 80% 0.2 mm 390 W/m2
15:54 19.4 °C 15.9 °C 1003.4 hPa WNW 6.4 km/h 11.3 km/h 80% 0.2 mm 388 W/m2
15:59 19.8 °C 15.4 °C 1003.4 hPa WNW 6.4 km/h 12.9 km/h 76% 0.2 mm 380 W/m2
16:04 20.1 °C 14.7 °C 1003.4 hPa WSW 7.9 km/h 9.7 km/h 71% 0.2 mm 383 W/m2
16:09 20.3 °C 15.1 °C 1003.0 hPa NNW 4.7 km/h 8 km/h 72% 0.2 mm 380 W/m2
16:14 20.5 °C 15.3 °C 1003.0 hPa NW 3.2 km/h 11.3 km/h 72% 0.2 mm 396 W/m2
16:19 20.7 °C 15.7 °C 1003.0 hPa NW 3.2 km/h 6.4 km/h 73% 0.2 mm 373 W/m2
16:24 20.7 °C 15.5 °C 1003.0 hPa NW 4.7 km/h 9.7 km/h 72% 0.2 mm 353 W/m2
16:29 20.8 °C 16 °C 1003.0 hPa West 4.7 km/h 6.4 km/h 74% 0.2 mm 394 W/m2
16:34 20.9 °C 16.1 °C 1003.0 hPa West 1.4 km/h 6.4 km/h 74% 0.0 mm 424 W/m2
16:39 21.2 °C 15.9 °C 1003.0 hPa West 4.7 km/h 8 km/h 72% 0.0 mm 401 W/m2
16:44 21.3 °C 16 °C 1003.0 hPa WNW 4.7 km/h 6.4 km/h 72% 0.0 mm 418 W/m2
16:49 21.3 °C 16 °C 1002.7 hPa WNW 3.2 km/h 16.1 km/h 72% 0.0 mm 448 W/m2
16:54 21.5 °C 16 °C 1002.7 hPa NW 14.3 km/h 14.5 km/h 71% 0.0 mm 573 W/m2
16:59 21.8 °C 15.9 °C 1002.7 hPa WNW 6.4 km/h 16.1 km/h 69% 0.0 mm 559 W/m2
17:04 21.9 °C 15.5 °C 1002.7 hPa WNW 3.2 km/h 11.3 km/h 67% 0.0 mm 494 W/m2
17:10 22.1 °C 15.7 °C 1002.7 hPa West 3.2 km/h 14.5 km/h 67% 0.0 mm 482 W/m2
17:15 22.1 °C 15.9 °C 1002.7 hPa NW 13 km/h 12.9 km/h 68% 0.0 mm 439 W/m2
17:20 22.1 °C 16.4 °C 1002.7 hPa SW 4.7 km/h 9.7 km/h 70% 0.0 mm 457 W/m2
17:25 21.9 °C 15.7 °C 1002.7 hPa West 13 km/h 12.9 km/h 68% 0.0 mm 468 W/m2
17:30 21.8 °C 16.1 °C 1002.7 hPa WNW 4.7 km/h 9.7 km/h 70% 0.0 mm 497 W/m2
17:35 22.1 °C 16.4 °C 1002.7 hPa North 3.2 km/h 4.8 km/h 70% 0.0 mm 475 W/m2
17:40 22.3 °C 16.3 °C 1002.7 hPa WSW 7.9 km/h 8 km/h 69% 0.0 mm 471 W/m2
17:45 22.3 °C 16.6 °C 1002.4 hPa West 3.2 km/h 6.4 km/h 70% 0.0 mm 452 W/m2
17:50 22.4 °C 16.4 °C 1002.4 hPa NNW 6.4 km/h 9.7 km/h 69% 0.0 mm 418 W/m2
17:55 22.5 °C 16.5 °C 1002.4 hPa North 3.2 km/h 11.3 km/h 69% 0.0 mm 364 W/m2
18:00 22.3 °C 16.3 °C 1002.0 hPa WNW 6.4 km/h 6.4 km/h 69% 0.0 mm 309 W/m2
18:06 22.2 °C 16 °C 1002.0 hPa NW 3.2 km/h 9.7 km/h 68% 0.0 mm 281 W/m2
18:11 22.1 °C 16.1 °C 1002.0 hPa West 3.2 km/h 4.8 km/h 69% 0.0 mm 287 W/m2
18:16 22.1 °C 15.9 °C 1002.0 hPa WSW 6.4 km/h 12.9 km/h 68% 0.0 mm 308 W/m2
18:21 22 °C 15.8 °C 1002.0 hPa WNW 3.2 km/h 4.8 km/h 68% 0.0 mm 350 W/m2
18:26 22.2 °C 15.8 °C 1002.0 hPa West 4.7 km/h 11.3 km/h 67% 0.0 mm 353 W/m2
18:31 22.2 °C 16 °C 1002.0 hPa SW 3.2 km/h 8 km/h 68% 0.0 mm 316 W/m2
18:36 22.2 °C 16.2 °C 1002.0 hPa WSW 6.4 km/h 6.4 km/h 69% 0.0 mm 276 W/m2
18:41 22.3 °C 15.6 °C 1001.7 hPa WNW 1.4 km/h 9.7 km/h 66% 0.0 mm 329 W/m2
18:46 22.4 °C 16 °C 1001.7 hPa NW 3.2 km/h 9.7 km/h 67% 0.0 mm 285 W/m2
18:51 22.4 °C 15.7 °C 1001.7 hPa ENE 4.7 km/h 6.4 km/h 66% 0.0 mm 113 W/m2
18:56 22.3 °C 15.2 °C 1001.7 hPa NNW 4.7 km/h 6.4 km/h 64% 0.0 mm 86 W/m2
19:01 22 °C 15.1 °C 1001.7 hPa NW 3.2 km/h 6.4 km/h 65% 0.0 mm 76 W/m2
19:06 21.7 °C 15.1 °C 1001.7 hPa WNW 1.4 km/h 3.2 km/h 66% 0.0 mm 77 W/m2
19:11 21.5 °C 14.9 °C 1001.7 hPa Calm   4.8 km/h 66% 0.0 mm 76 W/m2
19:16 21.4 °C 15.2 °C 1001.7 hPa North 3.2 km/h 4.8 km/h 68% 0.0 mm 120 W/m2
19:21 21.4 °C 15 °C 1001.7 hPa NW 1.4 km/h 3.2 km/h 67% 0.0 mm 156 W/m2
19:26 21.6 °C 15.2 °C 1001.7 hPa WNW 1.4 km/h 8 km/h 67% 0.0 mm 128 W/m2
19:31 21.6 °C 15.7 °C 1001.7 hPa WNW 1.4 km/h 4.8 km/h 69% 0.0 mm 153 W/m2
19:36 21.5 °C 15.6 °C 1001.7 hPa WNW 6.4 km/h 9.7 km/h 69% 0.0 mm 141 W/m2
19:41 21.4 °C 15.7 °C 1001.7 hPa WNW 4.7 km/h 6.4 km/h 70% 0.0 mm 102 W/m2
19:47 21.2 °C 15.7 °C 1001.7 hPa NW 3.2 km/h 4.8 km/h 71% 0.0 mm 60 W/m2
19:52 21 °C 15.8 °C 1001.7 hPa WNW 1.4 km/h 3.2 km/h 72% 0.0 mm 42 W/m2
19:57 20.8 °C 15.8 °C 1001.7 hPa NNW 3.2 km/h 4.8 km/h 73% 0.0 mm 69 W/m2
20:02 20.8 °C 16 °C 1001.7 hPa Calm   3.2 km/h 74% 0.0 mm 81 W/m2
20:07 20.8 °C 16 °C 1001.7 hPa NNW 1.4 km/h 4.8 km/h 74% 0.0 mm 54 W/m2
20:12 20.7 °C 15.9 °C 1001.7 hPa Calm   6.4 km/h 74% 0.0 mm 58 W/m2
20:17 20.7 °C 16.1 °C 1001.7 hPa WNW 3.2 km/h 3.2 km/h 75% 0.0 mm 53 W/m2
20:22 20.5 °C 16.1 °C 1001.7 hPa NNW 3.2 km/h 4.8 km/h 76% 0.0 mm 47 W/m2
20:27 20.3 °C 16.1 °C 1002.0 hPa NNW 3.2 km/h 4.8 km/h 77% 0.0 mm 40 W/m2
20:32 20.2 °C 16 °C 1002.0 hPa Calm   1.6 km/h 77% 0.0 mm 35 W/m2
20:37 20.1 °C 16.3 °C 1002.0 hPa Calm   4.8 km/h 79% 0.0 mm 26 W/m2
20:42 19.9 °C 16.3 °C 1002.0 hPa Calm     80% 0.0 mm 14 W/m2
20:47 19.6 °C 16.2 °C 1002.0 hPa Calm     81% 0.0 mm 9 W/m2
20:52 19.3 °C 16.1 °C 1002.0 hPa Calm     82% 0.0 mm 7 W/m2
20:57 19.2 °C 16.2 °C 1002.0 hPa Calm     83% 0.0 mm 5 W/m2
21:02 18.9 °C 15.9 °C 1002.0 hPa Calm     83% 0.0 mm 0 W/m2
21:07 18.7 °C 15.9 °C 1002.0 hPa Calm     84% 0.0 mm 0 W/m2
21:12 18.6 °C 16 °C 1002.0 hPa Calm     85% 0.0 mm 0 W/m2
21:17 18.4 °C 15.8 °C 1002.0 hPa Calm     85% 0.0 mm 0 W/m2
21:22 18.3 °C 15.9 °C 1002.0 hPa Calm     86% 0.0 mm 0 W/m2
21:27 18.1 °C 15.7 °C 1002.0 hPa Calm     86% 0.0 mm 0 W/m2
21:32 18 °C 15.8 °C 1002.4 hPa Calm     87% 0.0 mm 0 W/m2
21:37 18 °C 15.8 °C 1002.4 hPa Calm     87% 0.0 mm 0 W/m2
21:43 17.9 °C 15.9 °C 1002.4 hPa Calm     88% 0.0 mm 0 W/m2
21:48 18 °C 16 °C 1002.4 hPa WNW 1.4 km/h 3.2 km/h 88% 0.0 mm 0 W/m2
21:53 18.1 °C 15.9 °C 1002.4 hPa WNW 3.2 km/h 4.8 km/h 87% 0.0 mm 0 W/m2
21:58 18.2 °C 16 °C 1002.4 hPa WNW 1.4 km/h 3.2 km/h 87% 0.0 mm 0 W/m2
22:03 18.2 °C 16 °C 1002.0 hPa NW 1.4 km/h 4.8 km/h 87% 0.0 mm 0 W/m2
22:08 18.2 °C 16 °C 1002.0 hPa NW 1.4 km/h 3.2 km/h 87% 0.0 mm 0 W/m2
22:13 18.2 °C 16 °C 1002.4 hPa NW 3.2 km/h 6.4 km/h 87% 0.0 mm 0 W/m2
22:18 18.1 °C 15.9 °C 1002.4 hPa WNW 1.4 km/h 4.8 km/h 87% 0.0 mm 0 W/m2
22:23 18.1 °C 15.9 °C 1002.4 hPa NW 1.4 km/h 3.2 km/h 87% 0.0 mm 0 W/m2
22:28 18.1 °C 16.1 °C 1002.4 hPa Calm   4.8 km/h 88% 0.0 mm 0 W/m2
22:33 18 °C 16 °C 1002.4 hPa South 1.4 km/h 1.6 km/h 88% 0.0 mm 0 W/m2
22:38 17.9 °C 15.9 °C 1002.4 hPa WNW 1.4 km/h 3.2 km/h 88% 0.0 mm 0 W/m2
22:43 17.8 °C 15.8 °C 1002.4 hPa Calm   3.2 km/h 88% 0.0 mm 0 W/m2
22:48 17.7 °C 15.9 °C 1002.4 hPa NNW 1.4 km/h 3.2 km/h 89% 0.0 mm 0 W/m2
22:53 17.7 °C 15.9 °C 1002.4 hPa NW 1.4 km/h 4.8 km/h 89% 0.0 mm 0 W/m2
22:58 17.7 °C 15.9 °C 1002.4 hPa WNW 3.2 km/h 4.8 km/h 89% 0.0 mm 0 W/m2
23:03 17.6 °C 15.8 °C 1002.0 hPa Calm   4.8 km/h 89% 0.0 mm 0 W/m2
23:08 17.6 °C 15.8 °C 1002.0 hPa NNW 1.4 km/h 4.8 km/h 89% 0.0 mm 0 W/m2
23:13 17.5 °C 15.5 °C 1002.0 hPa West 1.4 km/h 3.2 km/h 88% 0.0 mm 0 W/m2
23:18 17.4 °C 15.4 °C 1002.0 hPa Calm   4.8 km/h 88% 0.0 mm 0 W/m2
23:23 17.3 °C 15.3 °C 1002.0 hPa Calm   3.2 km/h 88% 0.0 mm 0 W/m2
23:28 17.3 °C 15.3 °C 1002.0 hPa West 3.2 km/h 6.4 km/h 88% 0.0 mm 0 W/m2
23:33 17.3 °C 15.3 °C 1002.0 hPa Calm   9.7 km/h 88% 0.0 mm 0 W/m2
23:38 17.3 °C 15.3 °C 1002.0 hPa West 6.4 km/h 6.4 km/h 88% 0.0 mm 0 W/m2
23:43 17.3 °C 15.3 °C 1001.7 hPa WNW 3.2 km/h 4.8 km/h 88% 0.0 mm 0 W/m2
23:48 17.2 °C 15.2 °C 1002.0 hPa WNW 1.4 km/h 3.2 km/h 88% 0.0 mm 0 W/m2
23:53 17.2 °C 15.2 °C 1002.0 hPa NNW 6.4 km/h 9.7 km/h 88% 0.0 mm 0 W/m2
23:58 17.1 °C 15.1 °C 1002.0 hPa NE 6.4 km/h 6.4 km/h 88% 0.0 mm 0 W/m2
Juneau County Weather
Compliments of Weather Underground - 2 mb